Weather History for CYAH - January, 2013

Change the Weather History Date:

Sunday, January 20, 2013

  Actual Average Record
Temperature  
Mean Temperature -18 °F -  
Max Temperature -2 °F 0 °F 23 °F (1998)
Min Temperature -34 °F -18 °F -40 °F (2009)
Degree Days  
Heating Degree Days 83    
Moisture  
Dew Point -15 °F    
Average Humidity 75    
Maximum Humidity 85    
Minimum Humidity 51    
Precipitation  
Precipitation 0.02 in - - ()
Sea Level Pressure  
Sea Level Pressure 29.56 in    
Wind  
Wind Speed 6 mph ()    
Max Wind Speed 14 mph    
Max Gust Speed 22 mph    
Visibility 5.1 miles    
Events Snow    
Averages and records for this station are not official NWS values.
T = Trace of Precipitation, MM = Missing Value Source: Averaged Metar Reports

Daily Weather History Graph

Daily Weather History Graph

Search for Another Location

Airport or City:

Trip Planner

Search our weather history database for the weather conditions in past years. The results will help you decide how hot, cold, wet, or windy it might be!

Date:

Astronomy

Jan. 20, 2013 Rise Set
Actual Time 7:58 AM EST 4:14 PM EST
Civil Twilight 7:17 AM EST 4:54 PM EST
Nautical Twilight 6:34 AM EST 5:38 PM EST
Astronomical Twilight 5:52 AM EST 6:20 PM EST
Moon 11:16 AM EST (1/20) 2:22 AM EST (1/20)
Length of Visible Light 9h 36m
Length of Day
8h 16m
Waxing Gibbous, 66% of the Moon is Illuminated
Jan 20
Waxing Gibbous
Jan 26
Full
Feb 3
Last Quarter
Feb 10
New
Feb 17
First Quarter

Hourly Weather History & Observations

Time (EST) Temp. Windchill Dew Point Humidity Pressure Visibility Wind Dir Wind Speed Gust Speed Precip Events Conditions
12:00 AM -32.8 °F - -40.0 °F 68% 30.10 in 9.0 mi Calm Calm - N/A   Partly Cloudy
1:00 AM -32 °F - -39 °F 51% 30.07 in 10 mi ENE 4.6 mph - -  
1:00 AM -32.8 °F -48.2 °F -38.2 °F 75% 30.07 in 9.0 mi ENE 4.6 mph - N/A   Clear
2:00 AM -31.0 °F -54.7 °F -38.2 °F 68% 30.05 in 9.0 mi East 10.4 mph - N/A   Clear
3:00 AM -31.0 °F -46.1 °F -36.4 °F 75% 30.00 in 9.0 mi ENE 4.6 mph - N/A   Clear
4:00 AM -25.6 °F -45.4 °F -31.0 °F 76% 29.97 in 9.0 mi ENE 8.1 mph - N/A   Clear
5:00 AM -22.0 °F -35.6 °F -29.2 °F 69% 29.92 in 9.0 mi NNE 4.6 mph - N/A   Overcast
6:00 AM -18.4 °F -33.4 °F -23.8 °F 76% 29.88 in 9.0 mi ENE 5.8 mph - N/A   Overcast
7:00 AM -14 °F - -19 °F 65% 29.81 in 10 mi ENE 8.1 mph - -   Overcast
7:00 AM -14.8 °F -30.8 °F -18.4 °F 84% 29.81 in 9.0 mi ENE 6.9 mph - N/A   Overcast
8:00 AM -18.4 °F -35.1 °F -27.4 °F 63% 29.77 in 12.0 mi ENE 6.9 mph - N/A   Overcast
9:00 AM -13.0 °F -28.6 °F -23.8 °F 59% 29.72 in 12.0 mi NE 6.9 mph - N/A   Overcast
10:00 AM -11.2 °F -31.1 °F -22.0 °F 59% 29.66 in 12.0 mi ENE 11.5 mph 17.3 mph N/A   Overcast
10:29 AM - - - N/A% - 2.0 mi ENE 9.2 mph - N/A   Unknown
11:00 AM -9.4 °F -27.9 °F -20.2 °F 59% 29.60 in 2.0 mi ENE 10.4 mph 21.9 mph N/A Snow Light Snow
11:49 AM - - - N/A% - 1.5 mi ENE 11.5 mph 18.4 mph N/A   Unknown
12:00 PM -9.4 °F -29.8 °F -18.4 °F 65% 29.53 in 1.5 mi ENE 12.7 mph 21.9 mph N/A Snow Light Snow
1:00 PM -3 °F - -8 °F 66% 29.47 in 1 mi ENE 13.8 mph - - Snow Light Snow
1:00 PM -7.6 °F -26.6 °F -16.6 °F 65% 29.49 in 2.0 mi ENE 11.5 mph 18.4 mph N/A Snow Light Snow
2:00 PM -7.6 °F -25.7 °F -14.8 °F 71% 29.46 in 2.0 mi ENE 10.4 mph 18.4 mph N/A Snow Light Snow
3:00 PM -7.6 °F -23.4 °F -14.8 °F 71% 29.45 in 1.5 mi NNE 8.1 mph - N/A Snow Light Snow
4:00 PM -7.6 °F -20.6 °F -14.8 °F 71% 29.31 in 2.0 mi NE 5.8 mph - N/A Snow Light Snow
4:10 PM -4.0 °F -16.3 °F -7.6 °F 85% 29.43 in 1.2 mi NE 5.8 mph - N/A Snow Light Snow
4:12 PM -4.0 °F -14.6 °F -7.6 °F 85% 29.42 in 1.5 mi NNE 4.6 mph - N/A Snow Light Snow
4:27 PM -4.0 °F -19.0 °F -7.6 °F 85% 29.42 in 2.5 mi NE 8.1 mph - N/A Snow Light Snow
4:40 PM -4.0 °F -17.8 °F -7.6 °F 85% 29.42 in 2.2 mi NE 6.9 mph - N/A Snow Light Snow
5:00 PM -4.0 °F -17.8 °F -7.6 °F 85% 29.42 in 1.8 mi NE 6.9 mph - N/A Snow Light Snow
5:34 PM -4.0 °F -14.6 °F -7.6 °F 85% 29.42 in 1.5 mi NNE 4.6 mph - N/A Snow Light Snow
5:36 PM -4.0 °F -17.8 °F -7.6 °F 85% 29.42 in 1.2 mi NNE 6.9 mph - N/A Snow Light Snow
6:00 PM -2.2 °F -12.5 °F -7.6 °F 78% 29.42 in 1.2 mi NNE 4.6 mph - N/A Snow Light Snow
6:02 PM -2.2 °F -14.2 °F -7.6 °F 78% 29.42 in 1.5 mi NNE 5.8 mph - N/A Snow Light Snow
6:18 PM -2.2 °F -15.6 °F -7.6 °F 78% 29.42 in 1.2 mi NNE 6.9 mph - N/A Snow Light Snow
6:54 PM -2.2 °F -12.5 °F -7.6 °F 78% 29.42 in 1.2 mi North 4.6 mph - N/A Snow Light Snow
6:56 PM -2.2 °F -12.5 °F -7.6 °F 78% 29.42 in 1.5 mi NNE 4.6 mph - N/A Snow Light Snow
7:00 PM -3 °F - -7 °F 72% 29.42 in 2 mi NNE 5.8 mph - - Snow Light Snow
7:00 PM -2.2 °F -15.6 °F -7.6 °F 78% 29.42 in 1.8 mi NNE 6.9 mph - N/A Snow Light Snow
7:18 PM -4.0 °F -19.0 °F -9.4 °F 78% 29.42 in 2.5 mi NNW 8.1 mph - N/A Snow Light Snow
7:20 PM -4.0 °F -17.8 °F -9.4 °F 78% 29.42 in 3.0 mi NNW 6.9 mph - N/A Snow Light Snow
7:26 PM -4.0 °F -16.3 °F -9.4 °F 78% 29.42 in 6.0 mi NNW 5.8 mph - N/A Snow Light Snow
8:00 PM -5.8 °F -19.9 °F -11.2 °F 77% 29.42 in 9.0 mi NNW 6.9 mph - N/A Snow Light Snow
8:09 PM -5.8 °F -18.4 °F -11.2 °F 77% 29.42 in 5.0 mi NW 5.8 mph - N/A Snow Light Snow
9:29 PM -4.0 °F -16.3 °F -9.4 °F 78% 29.42 in 6.0 mi WNW 5.8 mph - N/A Snow Light Snow
10:00 PM -4.0 °F -20.2 °F -9.4 °F 78% 29.43 in 8.0 mi WNW 9.2 mph - N/A Snow Light Snow
10:46 PM -5.8 °F -24.4 °F -11.2 °F 77% 29.44 in 9.0 mi WNW 11.5 mph 17.3 mph N/A   Overcast
10:51 PM -5.8 °F -24.4 °F -11.2 °F 77% 29.44 in 9.0 mi WNW 11.5 mph 17.3 mph N/A Snow Light Snow
11:00 PM -5.8 °F -22.4 °F -11.2 °F 77% 29.44 in 9.0 mi NW 9.2 mph 18.4 mph N/A Snow Light Snow
11:02 PM -5.8 °F -22.4 °F -11.2 °F 77% 29.44 in 9.0 mi NW 9.2 mph 18.4 mph N/A   Overcast
11:10 PM -5.8 °F -23.4 °F -11.2 °F 77% 29.45 in 9.0 mi NW 10.4 mph - N/A Snow Light Snow
11:23 PM -5.8 °F -24.4 °F -11.2 °F 77% 29.45 in 5.0 mi NW 11.5 mph - N/A Snow Light Snow
11:34 PM -5.8 °F -22.4 °F -11.2 °F 77% 29.45 in 2.2 mi NW 9.2 mph - N/A Snow Light Snow
11:58 PM -5.8 °F -25.2 °F -11.2 °F 77% 29.45 in 1.5 mi WNW 12.7 mph - N/A Snow Light Snow